Regional Weather Roundup
Issued by NWS

Home | Current Version | Previous Version | Text Only | Print | Product List | Glossary Off
Versions: 1 2 3 4 5 6 7 8 9 10 11 12 13 14 15 16 17 18 19 20 21 22 23 24 25 26 27 28 29 30 31 32 33 34 35 36 37 38 39 40 41 42 43 44 45 46 47 48 49 50

000
ASUS43 KFSD 200310
RWRSD

WEATHER ROUNDUP FOR SOUTH DAKOTA
NATIONAL WEATHER SERVICE SIOUX FALLS SD
1000 PM CDT TUE AUG 19 2014

NOTE: "FAIR" INDICATES FEW OR NO CLOUDS BELOW 12,000 FEET WITH NO
SIGNIFICANT WEATHER AND/OR OBSTRUCTIONS TO VISIBILITY.


SDZ001>005-009-010-012>017-200400-
NORTHWEST AND NORTH CENTRAL SOUTH DAKOTA

CITY           SKY/WX    TMP DP  RH WIND       PRES   REMARKS
BUFFALO          N/A     74  56  53 SE10      29.68R
FAITH            N/A     76  58  53 SE14      29.74S
MOBRIDGE       PTCLDY    73  63  70 SE10      29.72R
$$

SDZ012>016-024>037-041>051-057-063-072>074-200400-
SOUTHWEST AND SOUTH CENTRAL SOUTH DAKOTA

CITY           SKY/WX    TMP DP  RH WIND       PRES   REMARKS
RAPID CTY ARPT MOCLDY    72  60  66 E7        29.75R
PIERRE         MOCLDY    76  61  59 SE12      29.72S
CUSTER         MOCLDY    69  54  58 NE8       29.90F
ELLSWORTH AFB  MOCLDY    75  59  56 SE7       29.76R
PHILIP         CLEAR     77  60  55 E12       29.71S
PINE RIDGE     LGT RAIN  70  61  73 CALM      29.79S
WINNER         FAIR      75  65  70 SE10      29.77R
$$

SDZ004>011-016>023-039-040-200400-
NORTHEAST SOUTH DAKOTA

CITY           SKY/WX    TMP DP  RH WIND       PRES   REMARKS
ABERDEEN       PTCLDY    67  64  90 E6        29.77R
WATERTOWN      CLEAR     71  63  75 CALM      29.81R
SISSETON         N/A     68  65  90 S5        29.77R
$$

SDZ017-020-022-023-036>040-048>070-200400-
SOUTHEAST SOUTH DAKOTA

CITY           SKY/WX    TMP DP  RH WIND       PRES   REMARKS
SIOUX FALLS    PTCLDY    74  63  68 CALM      29.82R
HURON          PTCLDY    74  61  63 SE10      29.77R
CHAMBERLAIN    MOCLDY    71  64  79 SE7       29.76S
MITCHELL       PTCLDY    70  65  84 SE6       29.79R
YANKTON        PTCLDY    72  64  78 E5        29.80R
$$

ABBREVIATIONS USED IN REMARKS
   TC - TEMPERATURE IN CELSIUS
  WCI - WIND CHILL INDEX
   HX - HEAT INDEX
  VSB - VISIBILITY




USA.gov is the U.S. government's official web portal to all federal, state and local government web resources and services.